Flag for Canada Weather past 2 weeks in Yellowknife, Northwest Territories, Canada

Now
-13 °F

Scattered clouds.


Feels Like: -29 °F
Forecast: -22 / 2 °F
Wind: 7 mph from Southeast

Location: Yellowknife

Current Time: Mar 4, 2015 at 10:38:22 AM

Latest Report: Mar 4, 2015 at 10:00 AM


Visibility: 15 mi

Pressure: 30.06 "Hg

Humidity: 69%

Dew point: -20 °F

Location of YellowknifeLocation

Historic Weather in Yellowknife — Graph

°F

Yellowknife temperature yesterday

Maximum temperature yesterday: -6 °F (at 2:00 PM)
Minimum temperature yesterday: -27 °F (at 8:00 AM)
Average temperature yesterday: -17 °F

Past Weeks' High & Low Weather Summary

 TemperatureHumidityPressure
High23 °F (Feb 27, 9:00 PM)93% (Feb 27, 8:00 PM)30.80 "Hg (Feb 27, 8:00 PM)
Low-29 °F (Feb 21, 5:00 AM)47% (Feb 28, 3:00 PM)29.83 "Hg (Mar 1, 2:00 PM)
Average-5 °F73%30.33 "Hg
* Reported Feb 17 9:00 AM — Mar 4 9:00 AM, Yellowknife, Weather by CustomWeather, © 2015

Note: Actual official high and low records may vary slightly from our data, if they occured in-between our weather recording intervals... More about our weather records

Advertising

Yellowknife weather history for previous 24 hours

 ConditionsComfort  
Time TempWeatherWind HumidityBarometerVisibility
9:00 AM
Wed, Mar 4
-18 °FBroken clouds.8 mph75%30.08 "Hg15 mi
8:00 AM-20 °FPartly sunny.9 mph75%30.10 "Hg15 mi
7:00 AM-20 °FPassing clouds.7 mph75%30.14 "Hg15 mi
6:00 AM-22 °FPassing clouds.8 mph75%30.16 "Hg15 mi
5:00 AM-22 °FPassing clouds.8 mph68%30.17 "Hg15 mi
4:00 AM-24 °FClear.9 mph75%30.21 "Hg15 mi
3:00 AM-22 °FClear.6 mph68%30.24 "Hg15 mi
2:00 AM-22 °FPassing clouds.7 mph75%30.27 "Hg15 mi
1:00 AM-22 °FPassing clouds.5 mph75%30.30 "Hg15 mi
12:00 AM-22 °FClear.3 mph75%30.32 "Hg15 mi
11:00 PM
Tue, Mar 3
-20 °FPassing clouds.6 mph75%30.34 "Hg15 mi
10:00 PM-20 °FPassing clouds.7 mph75%30.37 "Hg15 mi
9:00 PM-20 °FPassing clouds.8 mph75%30.38 "Hg15 mi
8:00 PM-18 °FPassing clouds.8 mph69%30.39 "Hg15 mi
7:00 PM-11 °FPassing clouds.5 mph58%30.41 "Hg15 mi
6:00 PM-9 °FSunny.3 mph58%30.43 "Hg15 mi
5:00 PM-8 °FSunny.6 mph53%30.45 "Hg15 mi
4:00 PM-6 °FSunny.7 mph54%30.46 "Hg15 mi
3:00 PM-6 °FSunny.3 mph54%30.47 "Hg15 mi
2:00 PM-6 °FSunny.3 mph49%30.48 "Hg15 mi
1:00 PM-8 °FSunny.3 mph53%30.50 "Hg15 mi
12:00 PM-11 °FSunny.6 mph58%30.51 "Hg15 mi
11:00 AM-17 °FSunny.No wind69%30.52 "Hg15 mi
10:00 AM-20 °FSunny.3 mph68%30.52 "Hg15 mi
Weather by CustomWeather, © 2015

See weather overviewHow to use our weather pages